Simultaneous Nadir Overpasses (SNOs) Predictions

Prediction of SNOs between GOES-16 and NOAA-19 Satellite Orbit:

Table of predicted SNOs for the next 14.0 days since TLE Epoch: 12/27/2019
Index Date Time (GOES-16) GOES-16 Lat,Lon NOAA-19 Lat,Lon Distance(km) Time Diff (sec)
1 12/28/2019 22:39:49 -0.05, -75.20 -0.81, -78.41 367.08 80
2 12/29/2019 22:28:11 -0.05, -75.20 -0.11, -75.57 41.48 80
3 12/30/2019 22:16:31 -0.05, -75.21 0.54, -72.72 284.48 80
4 01/02/2020 10:40:11 0.06, -75.24 0.65, -77.68 279.40 80
5 01/03/2020 10:25:52 0.06, -75.25 -0.02, -74.83 47.19 80
6 01/04/2020 10:14:12 0.06, -75.27 -0.68, -71.99 373.77 80
7 01/06/2020 22:38:01 -0.06, -75.30 -0.46, -76.99 192.98 80
8 01/07/2020 22:23:41 -0.07, -75.32 0.19, -74.14 133.79 80
9 01/08/2020 22:12:02 -0.07, -75.33 0.84, -71.29 460.58 80
10 01/10/2020 10:47:20 0.08, -75.36 0.92, -79.11 427.35 80




NCC Satellite Simultaneous Nadir Overpasses (SNOs) Prediction Service
